Starlink 31303

operational
NORAD ID: 59239 Int'l Des: 2024-049 Owner: SPXS Country: US Constellation: starlink
LEOCIRCULAR

关于 Starlink 31303

正在加载描述...

实时位置

正在加载3D地球...

即将过境

高度历史

Altitude vs Time

uPlot chart will show altitude changes over time

两行轨道根数

1 59239U 24049J 25350.14460881 -.00000903 00000-0 -23296-4 0 9994
2 59239 43.0013 244.5043 0000648 258.2448 101.8331 15.27594658 99753
Epoch: Dec 16, 2025 • Age: 23 hours

当前状态

高度 494.5 km
速度 7.62 km/s
星下点 -39.54°S, 50.72°E
发射日期 Mar 16, 2024
运行时间 1.7 years
类型 internet

技术详情

分类 Payload
质量 730.00 kg
干质量 700.00 kg
总质量 730.00 kg
长度 0.30 m
直径 4.10 m
跨度 29.00 m
形状 Box + pan
制造商 SPXS
平台类型 Starlink V2M
阶段状态 In Orbit
所有者/国家 SPXS/US

大型星座

Loading constellations...